Regional Weather Roundup
Issued by NWS Burlington, VT

Home | Current Version | Previous Version | Text Only | Print | Product List | Glossary On
Versions: 1 2 3 4 5 6 7 8 9 10 11 12 13 14 15 16 17 18 19 20 21 22 23 24 25 26 27 28 29 30 31 32 33 34 35 36 37 38 39 40 41 42 43 44 45 46 47 48 49 50
000
ASUS41 KBTV 242110
RWRBTV
VERMONT REGIONAL WEATHER ROUNDUP
NATIONAL WEATHER SERVICE BURLINGTON VT
500 PM EDT TUE APR 24 2018

NOTE: "FAIR" INDICATES FEW OR NO CLOUDS BELOW 12,000 FEET WITH NO
SIGNIFICANT WEATHER AND/OR OBSTRUCTIONS TO VISIBILITY.

* THESE REPORTS ARE NOT UNDER NWS QUALITY CONTROL AND/OR DO NOT
  REPORT WEATHER SUCH AS PRECIPITATION AND FOG.

VTZ001>019-242200-
_____VERMONT_____


CITY           SKY/WX    TMP DP  RH WIND       PRES   REMARKS
BURLINGTON     PTSUNNY   71  22  15 S15       30.13F
MONTPELIER     FAIR      66  22  18 SW8       30.20F
MORRISVILLE    FAIR      68  19  15 SW12G20   30.15S
ST. JOHNSBURY*   N/A     68  24  19 MISG      30.13F
LYNDONVILLE*   FAIR      68  18  14 SE10G16   30.17F
MIDDLEBURY*    FAIR      67  20  16 SW8       30.16F
RUTLAND*       FAIR      70  21  15 S10       30.15F
SPRINGFIELD    FAIR      70  25  18 S13G21    30.17F
HIGHGATE*      FAIR      71  32  23 SW10G17   30.12F
NEWPORT*       FAIR      67  22  18 S7        30.14F
BENNINGTON     FAIR      68  22  17 SW6       30.18F

_____LAKE CHAMPLAIN_____


CITY           SKY/WX    TMP DP  RH WIND       PRES   REMARKS
BURTON ISLAND*   N/A     61  30  31 SW16G26     N/A
COLCHESTER RF*   N/A     55  30  38 S18         N/A
DIAMOND ISL*     N/A     68  23  18 S15         N/A

$$

NYZ007-026>031-035-052-083-087-242200-
_____NORTHERN NEW YORK_____


CITY           SKY/WX    TMP DP  RH WIND       PRES   REMARKS
PLATTSBURGH    FAIR      63  29  27 SE14      30.11F
SARANAC LAKE   FAIR      64  12  13 W6        30.13F
MASSENA        FAIR      68  39  34 W10       30.11F
OGDENSBURG*    FAIR      66  34  30 SW5       30.12F
POTSDAM*       SUNNY     66  36  32 NW10      30.11F
WATERTOWN      FAIR      64  30  27 NW6       30.11F
FT DRUM        FAIR      65  26  22 NW8       30.11F
ALBANY         PTSUNNY   68  27  21 S16G28    30.18F
GLENS FALLS    FAIR      69  23  17 S18       30.16F

$$
NHZ002-005-011-242200-
_____NEW HAMPSHIRE_____


CITY           SKY/WX    TMP DP  RH WIND       PRES   REMARKS
LEBANON        FAIR      71  25  17 S9G17     30.16F
KEENE          FAIR      66  22  18 S18       30.21F
MT WASHINGTON  PTSUNNY   39  25  56 SW16G28     N/A  WCI  30
PLYMOUTH       FAIR      70  15  12 S7        30.17F
WHITEFIELD     FAIR      69  17  13 SW8       30.16S

$$

_____REGIONAL QUEBEC LOCATIONS_____


CITY           SKY/WX    TMP DP  RH WIND       PRES   REMARKS
MONTREAL       PTSUNNY   70  41  35 SW9       30.09S
QUEBEC CITY    PTSUNNY   61  41  48 W7        30.10S
SHERBROOKE     PTSUNNY   68  25  19 S9        30.11F

_____REGIONAL ONTARIO LOCATIONS_____


CITY           SKY/WX    TMP DP  RH WIND       PRES   REMARKS
OTTAWA         PTSUNNY   64  39  39 S13       30.10F

______KEY______
VSB  - VISIBILITY IN MILES
WCI  - WIND CHILL INDEX
HX   - HEAT INDEX
$$
NNNN



USA.gov is the U.S. government's official web portal to all federal, state and local government web resources and services.